Zurück zum Katalog

CORVUS BC1

AktivWissenschaftSSO
NORAD 42847·PAYLOAD·🇺🇸 United States

Gestartet Jul 14, 2017 von Baikonur Cosmodrome

Loading…

Nächste Überflüge (nächste 24 Stunden)

TLE

AktuellSource: Space-Track

Epoche: Sep 14, 2026, 09:08 UTC

1 42847U 17042Y   26257.38108692  .00002773  00000-0  18931-3 0  9992
2 42847  97.4212  56.2233 0012789 137.5243 222.6977 15.06916439500526

Verfolge CORVUS BC1 in Echtzeit mit AllMySat

Download on the App Store